Regional Weather Roundup
Issued by NWS

Home | Current Version | Previous Version | Graphics & Text | Print | Product List | Glossary On
Versions: 1 2 3 4 5 6 7 8 9 10 11 12 13 14 15 16 17 18 19 20 21 22 23 24 25 26 27 28 29 30 31 32 33 34 35 36 37 38 39 40 41 42 43 44 45 46 47 48 49 50
000
ASUS43 KTOP 211608
RWRKS

WEATHER ROUNDUP FOR KANSAS
NATIONAL WEATHER SERVICE GOODLAND KS
1100 AM CDT SAT APR 21 2018

NOTE:  "FAIR" INDICATES FEW OR NO CLOUDS BELOW 12,000 FEET WITH NO
SIGNIFICANT WEATHER AND/OR OBSTRUCTIONS TO VISIBILITY.

KSZ001>006-013>018-027>032-041>047-211700-
NORTHWEST KANSAS

CITY           SKY/WX    TMP DP  RH WIND       PRES   REMARKS
GOODLAND       LGT RAIN  39  37  92 E7        30.18R
HAYS           LGT RAIN  44  42  93 E14       30.18R
HILL CITY      LGT RAIN  43  42  97 E14       30.21R
RUSSELL        LGT RAIN  44  44 100 E12       30.18R FOG
$$

KSZ061>065-074>080-084>089-211700-
SOUTHWEST KANSAS

CITY           SKY/WX    TMP DP  RH WIND       PRES   REMARKS
DODGE CITY     CLOUDY    45  43  93 NE9       30.11S FOG
ELKHART        FOG       44  44 100 NE10      30.11S VSB 3/4
GARDEN CITY    LGT RAIN  43  41  93 NE10      30.13R VSB 1
GREAT BEND     LGT RAIN  45  43  93 NE9       30.16R FOG
LIBERAL        CLOUDY    44  44 100 NE9       30.11R FOG
PRATT          DRIZZLE  N/A N/A N/A E8        30.13S
$$

KSZ066>073-081>083-090>101-211700-
SOUTHEAST KANSAS

CITY           SKY/WX    TMP DP  RH WIND       PRES   REMARKS
CHANUTE        CLOUDY    52  35  52 E8        30.16F
COFFEYVILLE    CLOUDY    54  40  59 NE3       30.16R
HUTCHINSON     LGT RAIN  46  45  96 E14       30.17R FOG
MEDICINE LODGE   N/A     46  45  96 E8        30.11S
NEWTON         LGT RAIN  43  42  97 E9        30.19R
PARSONS        CLOUDY    54  37  52 NE3       30.16S
WICHITA INTL   LGT RAIN  46  44  93 E10       30.17R FOG
WICHITA JABRA  LGT RAIN  44  43  96 NE12      30.18R
WICHITA MCCONL LGT RAIN  44  44  97 E10       30.18R
WINFIELD       RAIN      45  44  97 E7        30.16R FOG
$$

KSZ007>012-019>026-033>040-048>060-102>105-211700-
NORTHEAST KANSAS

CITY           SKY/WX    TMP DP  RH WIND       PRES   REMARKS
CONCORDIA      LGT RAIN  43  41  93 E10       30.23R
EMPORIA        LGT RAIN  45  41  86 NE8       30.19S FOG
LAWRENCE       CLOUDY    49  39  68 E8        30.24R
MANHATTAN      LGT RAIN  45  43  93 NE6       30.24S FOG
MARYSVILLE     LGT RAIN  43  41  93 E5        30.27R
OLATHE IND     CLOUDY    50  37  61 NE7       30.23S
OLATHE EXE     CLOUDY    50  32  50 NE7       30.23S
SALINA         LGT RAIN  46  44  93 E12       30.21R
TOPEKA BILLARD LGT RAIN  47  42  83 NE9       30.23R
TOPEKA FORBES  LGT RAIN  47  42  83 NE6       30.23R
$$




USA.gov is the U.S. government's official web portal to all federal, state and local government web resources and services.